1513173600.63,2304,7.25,72558.8,-13.01,-14.83,-15.01,0,*5D
1513173601.89,2305,7.25,72558.0,-13.01,-14.89,-15.01,0,*56
1513173603.16,2306,7.25,72558.3,-13.01,-14.93,-15.01,0,*5E
1513173604.44,2307,7.25,72560.3,-13.01,-14.93,-15.01,0,*5F
1513173605.73,2308,7.25,72560.0,-13.01,-14.75,-14.93,0,*52
1513173606.99,2309,7.25,72562.0,-13.01,-14.83,-14.89,0,*51
1513173608.28,2310,7.25,72560.5,-13.01,-14.83,-14.93,0,*52
1513173609.57,2311,7.25,72566.5,-13.01,-14.83,-14.93,0,*53
1513173610.81,2312,7.25,72564.5,-13.03,-14.89,-14.93,0,*58
1513173612.07,2313,7.25,72574.5,-13.01,-14.89,-14.93,0,*5B
1513173613.33,2314,7.25,72564.8,-13.03,-14.83,-14.93,0,*54
1513173614.6,2315,7.25,72566.3,-13.03,-14.83,-15.01,0,*5F
1513173615.88,2316,7.25,72572.3,-13.01,-14.75,-14.93,0,*5D
1513173617.14,2317,7.25,72574.3,-13.01,-14.89,-14.93,0,*5F
1513173618.41,2318,7.25,72586.5,-13.01,-14.83,-14.89,0,*51
1513173619.67,2319,7.25,72576.3,-13.01,-14.83,-14.89,0,*50
1513173620.94,2320,7.25,72564.8,-13.03,-14.83,-14.83,0,*52
1513173622.21,2321,7.25,72560.3,-13.03,-14.83,-14.93,0,*52
1513173623.5,2322,7.25,72572.8,-13.01,-14.83,-14.93,0,*53
1513173624.79,2323,7.25,72560.5,-13.01,-14.83,-14.93,0,*52
1513173626.07,2324,7.25,72556.5,-13.01,-14.83,-14.93,0,*55
1513173627.33,2325,7.25,72552.5,-13.03,-14.75,-15.01,0,*55
1513173628.62,2326,7.25,72548.0,-13.01,-14.83,-14.93,0,*57
1513173629.88,2327,7.25,72542.0,-13.03,-14.75,-14.83,0,*5C
1513173631.14,2328,7.25,72542.0,-13.01,-14.75,-14.89,0,*5B
1513173632.43,2329,7.25,72540.5,-13.01,-14.75,-14.83,0,*50
1513173633.71,2330,7.25,72540.3,-13.01,-14.75,-14.83,0,*58
1513173634.97,2331,7.25,72546.5,-13.03,-14.75,-14.83,0,*5B
1513173636.23,2332,7.25,72552.3,-13.07,-14.79,-14.93,0,*51
1513173637.47,2333,7.25,72558.8,-13.03,-14.75,-14.89,0,*53
1513173638.7,2334,7.25,72556.5,-13.03,-14.75,-14.89,0,*54
1513173639.95,2335,7.25,72554.0,-13.03,-14.83,-14.89,0,*5C
1513173641.19,2336,7.25,72556.5,-13.03,-14.75,-14.89,0,*56
1513173642.45,2337,7.25,72560.3,-13.03,-14.83,-14.93,0,*55
1513173643.71,2338,7.25,72560.0,-13.03,-14.75,-14.83,0,*52
1513173644.95,2339,7.25,72560.0,-13.07,-14.79,-14.89,0,*51
1513173646.18,2340,7.25,72560.0,-13.03,-14.69,-14.83,0,*50
1513173647.44,2341,7.25,72548.5,-13.03,-14.75,-14.83,0,*5C
1513173648.7,2342,7.25,72548.8,-13.01,-14.69,-14.83,0,*50
1513173649.95,2343,7.25,72552.8,-13.03,-14.75,-14.75,0,*57
1513173651.19,2344,7.25,72550.8,-13.07,-14.79,-14.89,0,*5B
1513173652.46,2345,7.25,72554.8,-13.03,-14.83,-14.83,0,*51
1513173653.72,2346,7.25,72556.8,-13.03,-14.83,-14.83,0,*52
1513173654.99,2347,7.25,72556.3,-13.03,-14.75,-14.83,0,*5A
1513173656.24,2348,7.25,72556.0,-13.07,-14.79,-14.79,0,*58
1513173657.5,2349,7.25,72556.5,-13.07,-14.79,-14.79,0,*59
1513173658.76,2350,7.25,72552.5,-13.07,-14.79,-14.97,0,*51
1513173660.0,2351,7.25,72554.3,-13.03,-14.89,-14.93,0,*5F
1513173661.26,2352,7.25,72550.0,-13.03,-14.75,-14.83,0,*5E
1513173662.51,2353,7.25,72550.5,-13.03,-14.75,-14.75,0,*56
1513173663.75,2354,7.25,72546.5,-13.03,-14.89,-14.83,0,*5B
1513173664.99,2355,7.25,72544.3,-13.07,-14.79,-14.89,0,*5B
1513173666.25,2356,7.25,72546.0,-13.07,-14.79,-14.79,0,*57
1513173667.47,2357,7.25,72558.8,-13.07,-14.65,-14.75,0,*57
1513173668.7,2358,7.25,72556.5,-13.07,-14.65,-14.75,0,*58
1513173669.9,2359,7.25,72560.0,-13.07,-14.61,-14.69,0,*50
1513173671.14,2360,7.25,72564.3,-13.03,-14.55,-14.61,0,*51
1513173672.35,2361,7.25,72582.5,-13.03,-14.61,-14.61,0,*57
1513173673.55,2362,7.25,72580.5,-13.03,-14.69,-14.69,0,*54
1513173674.78,2363,7.25,72576.8,-13.07,-14.65,-14.75,0,*50
1513173676.04,2364,7.25,72586.0,-13.07,-14.75,-14.79,0,*5A
1513173677.27,2365,7.25,72574.3,-13.07,-14.65,-14.79,0,*5A
1513173678.5,2366,7.25,72560.0,-13.03,-14.61,-14.75,0,*55
1513173679.71,2367,7.25,72556.0,-13.03,-14.61,-14.69,0,*59
1513173680.94,2368,7.25,72560.3,-13.03,-14.69,-14.75,0,*53
1513173682.19,2369,7.25,72554.8,-13.07,-14.75,-14.79,0,*57
1513173683.45,2370,7.25,72548.3,-13.07,-14.75,-14.79,0,*5F
1513173684.68,2371,7.25,72564.0,-13.03,-14.69,-14.83,0,*52
1513173685.91,2372,7.25,72560.0,-13.03,-14.69,-14.83,0,*51
1513173687.14,2373,7.25,72556.5,-13.03,-14.69,-14.75,0,*59
1513173688.37,2374,7.25,72562.3,-13.03,-14.69,-14.83,0,*57
1513173689.6,2375,7.25,72562.8,-13.03,-14.69,-14.75,0,*5F
1513173690.83,2376,7.25,72560.3,-13.03,-14.69,-14.75,0,*5C
1513173692.06,2377,7.25,72564.3,-13.07,-14.75,-14.89,0,*57
1513173693.31,2378,7.25,72564.8,-13.07,-14.75,-14.75,0,*5B
1513173694.55,2379,7.25,72556.5,-13.11,-14.69,-14.79,0,*5C
1513173695.77,2380,7.25,72562.8,-13.07,-14.65,-14.75,0,*5D
1513173697.01,2381,7.25,72568.5,-13.07,-14.65,-14.79,0,*50
1513173698.24,2382,7.25,72574.3,-13.07,-14.79,-14.89,0,*51
1513173699.5,2383,7.25,72576.3,-13.11,-14.79,-14.93,0,*5C
1513173700.74,2384,7.25,72582.5,-13.07,-14.75,-14.89,0,*5B
1513173701.97,2385,7.25,72582.5,-13.07,-14.65,-14.79,0,*54
1513173703.23,2386,7.25,72574.0,-13.11,-14.79,-14.83,0,*58
1513173704.49,2387,7.25,72574.8,-13.07,-14.75,-14.79,0,*57
1513173705.75,2388,7.25,72584.0,-13.07,-14.75,-14.79,0,*58
1513173706.98,2389,7.25,72580.3,-13.07,-14.65,-14.79,0,*58
1513173708.21,2390,7.25,72584.0,-13.07,-14.65,-14.79,0,*50
1513173709.45,2391,7.25,72584.5,-13.03,-14.55,-14.69,0,*57
1513173710.68,2392,7.25,72582.3,-13.03,-14.55,-14.69,0,*54
1513173711.91,2393,7.25,72588.0,-13.07,-14.61,-14.75,0,*5B
1513173713.12,2394,7.25,72590.3,-13.07,-14.61,-14.65,0,*5D
1513173714.35,2395,7.25,72582.5,-13.07,-14.61,-14.75,0,*5D
1513173715.58,2396,7.25,72582.3,-13.07,-14.61,-14.75,0,*5E
1513173716.84,2397,7.25,72588.3,-13.07,-14.51,-14.75,0,*5C
1513173718.05,2398,7.25,72574.0,-13.07,-14.65,-14.65,0,*55
1513173719.28,2399,7.25,72572.3,-13.07,-14.61,-14.75,0,*51
1513173720.52,2400,7.25,72582.8,-13.07,-14.51,-14.65,0,*54
1513173721.77,2401,7.25,72572.8,-13.07,-14.51,-14.65,0,*55
1513173723.01,2402,7.25,72568.5,-13.07,-14.47,-14.65,0,*51
1513173724.22,2403,7.25,72560.0,-13.07,-14.61,-14.65,0,*54
1513173725.46,2404,7.25,72566.3,-13.07,-14.51,-14.65,0,*50
1513173726.7,2405,7.25,72574.3,-13.07,-14.51,-14.61,0,*55
1513173727.91,2406,7.25,72572.5,-13.07,-14.37,-14.61,0,*56
1513173729.18,2407,7.25,72576.8,-13.07,-14.47,-14.51,0,*53
1513173730.45,2408,7.25,72580.0,-13.07,-14.47,-14.51,0,*5C
1513173731.72,2409,7.25,72586.8,-13.07,-14.47,-14.51,0,*5D
1513173732.93,2410,7.25,72576.5,-13.07,-14.37,-14.65,0,*55
1513173734.17,2411,7.25,72582.8,-13.07,-14.51,-14.61,0,*50
1513173735.42,2412,7.25,72578.0,-13.07,-14.51,-14.65,0,*57
1513173736.62,2413,7.25,72578.0,-13.07,-14.61,-14.65,0,*55
1513173737.83,2414,7.25,72576.8,-13.07,-14.61,-14.65,0,*52
1513173739.07,2415,7.25,72580.5,-13.03,-14.55,-14.69,0,*5C
1513173740.28,2416,7.25,72578.5,-13.03,-14.61,-14.69,0,*58
1513173741.48,2417,7.25,72572.3,-13.03,-14.69,-14.69,0,*51
1513173742.68,2418,7.25,72572.5,-13.03,-14.69,-14.69,0,*5E
1513173743.9,2419,7.25,72572.5,-13.03,-14.69,-14.75,0,*52
1513173745.13,2420,7.25,72576.5,-13.03,-14.69,-14.75,0,*58
1513173746.36,2421,7.25,72572.5,-13.03,-14.69,-14.75,0,*59
1513173747.62,2422,7.25,72580.0,-13.07,-14.75,-14.79,0,*5F
1513173748.85,2423,7.25,72584.0,-13.03,-14.69,-14.83,0,*52
1513173750.08,2424,7.25,72588.0,-13.03,-14.61,-14.83,0,*5D
1513173751.31,2425,7.25,72582.8,-13.03,-14.69,-14.83,0,*54
1513173752.57,2426,7.25,72580.0,-13.07,-14.79,-14.83,0,*52
1513173753.84,2427,7.25,72578.5,-13.11,-14.79,-14.93,0,*55
1513173755.05,2428,7.25,72578.0,-13.07,-14.89,-14.89,0,*59
1513173756.31,2429,7.25,72576.5,-13.11,-14.93,-14.97,0,*5B
1513173757.57,2430,7.25,72580.0,-13.07,-14.79,-14.93,0,*54
1513173758.8,2431,7.25,72578.0,-13.07,-14.89,-14.93,0,*5A
1513173760.06,2432,7.25,72578.3,-13.07,-14.79,-14.93,0,*56
1513173761.31,2433,7.25,72576.3,-13.11,-14.93,-15.01,0,*5E
1513173762.58,2434,7.25,72576.8,-13.11,-14.83,-15.01,0,*58
1513173763.85,2435,7.25,72574.3,-13.11,-14.83,-14.93,0,*53
1513173765.08,2436,7.25,72574.0,-13.07,-14.89,-14.93,0,*5D
1513173766.34,2437,7.25,72574.3,-13.07,-14.75,-14.97,0,*5B
1513173767.6,2438,7.25,72574.0,-13.07,-14.79,-14.93,0,*5C
1513173768.84,2439,7.25,72568.3,-13.03,-14.75,-14.89,0,*5E
1513173770.11,2440,7.25,72562.0,-13.11,-14.83,-14.83,0,*50
1513173771.37,2441,7.25,72566.5,-13.11,-14.93,-14.93,0,*51
1513173772.63,2442,7.25,72566.8,-13.11,-14.79,-14.93,0,*56
1513173773.86,2443,7.25,72566.5,-13.07,-14.89,-14.93,0,*5F
1513173775.12,2444,7.25,72566.0,-13.07,-14.79,-14.93,0,*57
1513173776.39,2445,7.25,72568.8,-13.11,-14.83,-14.97,0,*50
1513173777.66,2446,7.25,72568.0,-13.11,-14.79,-14.83,0,*53
1513173778.92,2447,7.25,72570.3,-13.11,-14.79,-14.93,0,*53
1513173780.19,2448,7.25,72566.0,-13.11,-14.83,-14.83,0,*58
1513173781.45,2449,7.25,72568.3,-13.11,-14.93,-14.93,0,*59
1513173782.71,2450,7.25,72568.5,-13.07,-14.79,-14.93,0,*52
1513173783.94,2451,7.25,72570.0,-13.07,-14.79,-14.89,0,*58
1513173785.21,2452,7.25,72570.8,-13.11,-14.83,-14.93,0,*52
1513173786.48,2453,7.25,72566.0,-13.11,-14.79,-14.83,0,*57
1513173787.74,2454,7.25,72566.3,-13.11,-14.79,-14.97,0,*55
1513173789.0,2455,7.25,72564.0,-13.13,-14.89,-15.01,0,*57
1513173790.28,2456,7.25,72564.3,-13.11,-14.83,-14.97,0,*52
1513173791.54,2457,7.25,72568.0,-13.11,-14.93,-15.01,0,*5C
1513173792.79,2458,7.25,72564.5,-13.11,-14.93,-15.01,0,*53
1513173794.07,2459,7.25,72564.5,-13.11,-14.83,-14.97,0,*5D
1513173795.33,2460,7.25,72570.5,-13.11,-14.93,-14.97,0,*56
1513173796.59,2461,7.25,72574.5,-13.13,-14.97,-15.07,0,*59
1513173797.82,2462,7.25,72576.3,-13.15,-14.97,-15.07,0,*5C
1513173799.08,2463,7.25,72572.5,-13.13,-14.89,-14.97,0,*5C
1513173800.35,2464,7.25,72576.3,-13.13,-14.89,-14.97,0,*5B
1513173801.61,2465,7.25,72572.5,-13.13,-14.89,-15.01,0,*54
1513173802.87,2466,7.25,72572.3,-13.13,-14.89,-15.01,0,*57
1513173804.13,2467,7.25,72574.3,-13.13,-14.89,-14.97,0,*58
1513173805.39,2468,7.25,72572.0,-13.13,-14.89,-15.01,0,*59
1513173806.67,2469,7.25,72576.3,-13.13,-14.97,-15.01,0,*57
1513173807.93,2470,7.25,72570.8,-13.13,-14.97,-15.07,0,*59
1513173809.16,2471,7.25,72568.8,-13.15,-14.97,-15.07,0,*5E
1513173810.37,2472,7.25,72568.0,-13.15,-15.07,-15.15,0,*56
1513173811.6,2473,7.25,72566.3,-13.15,-15.01,-15.15,0,*51
1513173812.83,2474,7.25,72564.3,-13.15,-15.01,-15.15,0,*56
1513173814.09,2475,7.25,72564.5,-13.13,-15.07,-15.01,0,*52
1513173815.32,2476,7.25,72568.0,-13.15,-14.89,-15.01,0,*50
1513173816.59,2477,7.25,72568.5,-13.13,-14.89,-15.01,0,*57
1513173817.84,2478,7.25,72568.8,-13.15,-14.97,-14.97,0,*5F
1513173819.11,2479,7.25,72568.8,-13.13,-14.89,-15.01,0,*59
1513173820.37,2480,7.25,72570.5,-13.13,-14.89,-15.01,0,*5F
1513173821.6,2481,7.25,72570.3,-13.13,-14.89,-15.07,0,*58
1513173822.83,2482,7.25,72568.5,-13.15,-14.97,-15.07,0,*52
1513173824.04,2483,7.25,72564.5,-13.15,-15.07,-15.07,0,*5B
1513173825.28,2484,7.25,72556.0,-13.15,-15.15,-15.21,0,*5B
1513173826.49,2485,7.25,72562.5,-13.15,-14.89,-15.07,0,*5A
1513173827.73,2486,7.25,72554.8,-13.15,-14.89,-14.97,0,*51
1513173829.0,2487,7.25,72552.3,-13.15,-14.83,-14.97,0,*5A
1513173830.24,2488,7.25,72546.3,-13.15,-14.89,-14.97,0,*5F
1513173831.51,2489,7.25,72536.3,-13.15,-14.83,-15.01,0,*5A
1513173832.8,2490,7.25,72536.8,-13.13,-14.83,-14.97,0,*5A
1513173834.04,2491,7.25,72538.8,-13.15,-14.83,-14.89,0,*52
1513173835.28,2492,7.25,72540.8,-13.15,-14.75,-14.89,0,*58
1513173836.55,2493,7.25,72554.5,-13.13,-14.75,-14.89,0,*5F
1513173837.79,2494,7.25,72556.0,-13.15,-14.83,-14.89,0,*57
1513173839.04,2495,7.25,72554.3,-13.15,-14.83,-14.89,0,*56
1513173840.27,2496,7.25,72556.3,-13.15,-14.75,-14.89,0,*5C
1513173841.54,2497,7.25,72560.3,-13.15,-14.75,-14.83,0,*57
1513173842.8,2498,7.25,72562.0,-13.15,-14.75,-14.83,0,*58
1513173844.03,2499,7.25,72556.8,-13.15,-14.75,-14.69,0,*5D
1513173845.29,2500,7.25,72552.8,-13.15,-14.75,-14.83,0,*58
1513173846.55,2501,7.25,72548.3,-13.15,-14.75,-14.83,0,*59
1513173847.78,2502,7.25,72542.0,-13.15,-14.69,-14.83,0,*57
1513173849.01,2503,7.25,72528.5,-13.15,-14.69,-14.83,0,*56
1513173850.25,2504,7.25,72524.3,-13.15,-14.75,-14.89,0,*56
1513173851.46,2505,7.25,72516.3,-13.15,-14.69,-14.89,0,*5A
1513173852.72,2506,7.25,72514.0,-13.15,-14.75,-14.83,0,*5E
1513173853.99,2507,7.25,72528.5,-13.15,-14.83,-14.83,0,*56
1513173855.23,2508,7.25,72532.3,-13.15,-14.75,-14.89,0,*5A
1513173856.46,2509,7.25,72522.5,-13.13,-14.69,-14.89,0,*50
1513173857.67,2510,7.25,72528.3,-13.15,-14.69,-14.89,0,*5E
1513173858.89,2511,7.25,72526.5,-13.15,-14.69,-14.75,0,*5C
1513173860.13,2512,7.25,72534.0,-13.15,-14.61,-14.75,0,*57
1513173861.36,2513,7.25,72534.5,-13.15,-14.61,-14.75,0,*56
1513173862.61,2514,7.25,72530.3,-13.13,-14.69,-14.75,0,*5F
1513173863.85,2515,7.25,72536.3,-13.15,-14.69,-14.83,0,*51
1513173865.08,2516,7.25,72542.5,-13.15,-14.69,-14.83,0,*52
1513173866.31,2517,7.25,72548.5,-13.15,-14.69,-14.83,0,*53
1513173867.57,2518,7.25,72554.3,-13.15,-14.75,-14.83,0,*51
1513173868.83,2519,7.25,72554.0,-13.13,-14.69,-14.83,0,*5B
1513173870.09,2520,7.25,72558.0,-13.15,-14.75,-14.83,0,*5A
1513173871.32,2521,7.25,72560.0,-13.15,-14.69,-14.83,0,*56
1513173872.58,2522,7.25,72556.3,-13.15,-14.75,-14.83,0,*58
1513173873.85,2523,7.25,72562.0,-13.15,-14.83,-14.97,0,*55
1513173875.09,2524,7.25,72560.8,-13.15,-14.83,-14.89,0,*5D
1513173876.36,2525,7.25,72564.8,-13.15,-14.83,-15.01,0,*5D
1513173877.6,2526,7.25,72564.8,-13.15,-14.83,-15.07,0,*58
1513173878.86,2527,7.25,72568.3,-13.15,-14.97,-15.01,0,*5A
1513173880.12,2528,7.25,72570.8,-13.15,-14.83,-15.01,0,*50
1513173881.33,2529,7.25,72572.5,-13.15,-14.89,-15.07,0,*5D
1513173882.57,2530,7.25,72564.0,-13.15,-14.89,-15.01,0,*53
1513173883.8,2531,7.25,72564.0,-13.15,-14.89,-15.01,0,*52
1513173885.06,2532,7.25,72568.5,-13.15,-14.93,-15.01,0,*5A
1513173886.3,2533,7.25,72566.3,-13.15,-14.89,-15.01,0,*50
1513173887.53,2534,7.25,72564.3,-13.15,-14.97,-15.07,0,*5E
1513173888.78,2535,7.25,72570.8,-13.15,-14.97,-14.97,0,*57
1513173890.02,2536,7.25,72578.0,-13.15,-14.89,-15.01,0,*55
1513173891.25,2537,7.25,72578.3,-13.15,-14.89,-15.01,0,*54
1513173892.51,2538,7.25,72572.8,-13.15,-14.97,-15.01,0,*54
1513173893.74,2539,7.25,72566.3,-13.15,-14.89,-15.01,0,*5A
1513173894.98,2540,7.25,72572.0,-13.15,-14.89,-15.01,0,*54
1513173896.21,2541,7.25,72572.3,-13.15,-14.89,-15.01,0,*55
1513173897.47,2542,7.25,72572.5,-13.15,-14.97,-14.97,0,*57
1513173898.72,2543,7.25,72570.8,-13.15,-15.01,-15.01,0,*56
1513173899.95,2544,7.25,72572.8,-13.15,-14.97,-15.07,0,*59
1513173901.17,2545,7.25,72582.8,-13.15,-14.89,-15.15,0,*54
1513173902.4,2546,7.25,72578.5,-13.19,-15.01,-15.11,0,*5E
1513173903.65,2547,7.25,72574.0,-13.19,-14.97,-15.01,0,*50
1513173904.89,2548,7.25,72568.3,-13.15,-14.89,-15.01,0,*5C
1513173906.12,2549,7.25,72574.0,-13.19,-15.01,-15.11,0,*51
1513173907.35,2550,7.25,72572.0,-13.15,-14.97,-15.15,0,*5F
1513173908.56,2551,7.25,72572.5,-13.19,-15.07,-15.11,0,*5E
1513173909.81,2552,7.25,72578.0,-13.15,-14.97,-14.97,0,*56
1513173911.06,2553,7.25,72578.8,-13.15,-14.83,-14.89,0,*5D
1513173912.27,2554,7.25,72580.8,-13.19,-14.89,-14.89,0,*5C
1513173913.51,2555,7.25,72582.5,-13.19,-14.79,-14.89,0,*52
1513173914.77,2556,7.25,72580.3,-13.19,-14.75,-14.79,0,*52
1513173915.98,2557,7.25,72580.8,-13.19,-14.65,-14.65,0,*5F
1513173917.22,2558,7.25,72582.0,-13.15,-14.65,-14.75,0,*5D
1513173918.49,2559,7.25,72580.0,-13.15,-14.47,-14.55,0,*5E
1513173919.7,2560,7.25,72586.8,-13.19,-14.61,-14.65,0,*5F
1513173920.94,2561,7.25,72582.8,-13.15,-14.47,-14.69,0,*5A
1513173922.22,2562,7.25,72586.0,-13.15,-14.47,-14.55,0,*56
1513173923.48,2563,7.25,72590.0,-13.15,-14.55,-14.55,0,*54
1513173924.69,2564,7.25,72586.5,-13.19,-14.61,-14.65,0,*5B
1513173925.93,2565,7.25,72572.8,-13.19,-14.65,-14.79,0,*53
1513173927.16,2566,7.25,72564.8,-13.15,-14.61,-14.75,0,*54
1513173928.43,2567,7.25,72572.3,-13.19,-14.79,-14.79,0,*5C
1513173929.69,2568,7.25,72574.8,-13.15,-14.75,-14.83,0,*56
1513173930.92,2569,7.25,72582.8,-13.15,-14.69,-14.83,0,*5A
1513173932.19,2570,7.25,72582.3,-13.15,-14.83,-14.83,0,*56
1513173933.45,2571,7.25,72582.0,-13.15,-14.75,-14.83,0,*5E
1513173934.71,2572,7.25,72570.0,-13.15,-14.75,-14.83,0,*5D
1513173935.95,2573,7.25,72574.0,-13.19,-14.79,-14.89,0,*56
1513173937.18,2574,7.25,72566.3,-13.15,-14.89,-14.93,0,*59
1513173938.42,2575,7.25,72578.8,-13.15,-14.75,-14.89,0,*50
1513173939.67,2576,7.25,72574.5,-13.15,-14.83,-14.89,0,*5A
1513173940.91,2577,7.25,72570.5,-13.15,-14.83,-14.89,0,*5B
1513173942.16,2578,7.25,72572.8,-13.15,-14.83,-14.89,0,*54
1513173943.42,2579,7.25,72570.0,-13.15,-14.83,-14.97,0,*5A
1513173944.65,2580,7.25,72566.8,-13.19,-15.01,-15.07,0,*53
1513173945.89,2581,7.25,72564.5,-13.19,-14.97,-15.07,0,*5C
1513173947.11,2582,7.25,72566.3,-13.19,-15.01,-15.07,0,*51
1513173948.34,2583,7.25,72570.0,-13.19,-15.01,-15.07,0,*50
1513173949.55,2584,7.25,72570.8,-13.19,-15.07,-15.07,0,*51
1513173950.79,2585,7.25,72568.8,-13.15,-14.89,-15.01,0,*5D
1513173952.04,2586,7.25,72566.8,-13.19,-14.93,-15.01,0,*59
1513173953.26,2587,7.25,72568.5,-13.15,-14.89,-15.07,0,*59
1513173954.49,2588,7.25,72572.3,-13.19,-15.01,-15.25,0,*5B
1513173955.7,2589,7.25,72566.3,-13.19,-15.07,-15.11,0,*5B
1513173956.94,2590,7.25,72568.5,-13.19,-15.07,-15.21,0,*50
1513173958.17,2591,7.25,72570.8,-13.19,-15.01,-15.07,0,*53
1513173959.42,2592,7.25,72578.8,-13.19,-14.93,-15.01,0,*5C
1513173960.68,2593,7.25,72564.5,-13.19,-14.93,-14.93,0,*57
1513173961.93,2594,7.25,72570.8,-13.21,-14.97,-15.11,0,*54
1513173963.19,2595,7.25,72572.8,-13.21,-14.97,-15.11,0,*55
1513173964.42,2596,7.25,72568.5,-13.21,-15.11,-15.07,0,*5E
1513173965.67,2597,7.25,72572.0,-13.21,-14.97,-15.11,0,*57
1513173966.93,2598,7.25,72574.3,-13.21,-14.97,-15.07,0,*5F
1513173968.18,2599,7.25,72572.3,-13.21,-14.97,-15.07,0,*5E
1513173969.43,2600,7.25,72574.0,-13.21,-14.97,-15.07,0,*5D
1513173970.68,2601,7.25,72572.0,-13.21,-14.97,-15.07,0,*5C
1513173971.94,2602,7.25,72574.0,-13.21,-14.97,-15.11,0,*58
1513173973.19,2603,7.25,72574.5,-13.21,-14.97,-15.07,0,*5E
1513173974.45,2604,7.25,72572.5,-13.21,-15.07,-14.97,0,*59
1513173975.7,2605,7.25,72574.8,-13.21,-14.97,-15.07,0,*58
1513173976.96,2606,7.25,72574.0,-13.21,-14.97,-15.11,0,*5C
1513173978.24,2607,7.25,72576.3,-13.21,-14.97,-14.97,0,*52
1513173979.52,2608,7.25,72578.0,-13.21,-14.97,-14.97,0,*5D
1513173980.8,2609,7.25,72578.0,-13.21,-14.97,-14.97,0,*5C
1513173982.08,2610,7.25,72576.5,-13.21,-14.93,-14.97,0,*50
1513173983.37,2611,7.25,72564.8,-13.21,-14.93,-14.97,0,*51
1513173984.62,2612,7.25,72552.8,-13.21,-14.93,-15.07,0,*5A
1513173985.86,2613,7.25,72542.5,-13.23,-14.83,-15.07,0,*58
1513173987.15,2614,7.25,72540.0,-13.21,-14.93,-14.97,0,*54
1513173988.41,2615,7.25,72558.8,-13.23,-14.83,-14.93,0,*52
1513173989.7,2616,7.25,72554.3,-13.21,-14.83,-14.93,0,*53
1513173990.96,2617,7.25,72550.5,-13.23,-14.79,-14.83,0,*54
1513173992.25,2618,7.25,72548.5,-13.21,-14.83,-14.93,0,*5D
1513173993.52,2619,7.25,72554.0,-13.23,-14.83,-14.93,0,*5E
1513173994.8,2620,7.25,72552.3,-13.21,-14.79,-14.93,0,*53
1513173996.08,2621,7.25,72558.0,-13.21,-14.79,-14.93,0,*52
1513173997.34,2622,7.25,72556.8,-13.21,-14.69,-14.83,0,*51
1513173998.59,2623,7.25,72556.5,-13.21,-14.69,-14.79,0,*55
1513173999.84,2624,7.25,72566.0,-13.21,-14.69,-14.93,0,*56
1513174001.13,2625,7.25,72568.8,-13.21,-14.79,-14.79,0,*52
1513174002.41,2626,7.25,72568.0,-13.21,-14.79,-14.83,0,*54
1513174003.7,2627,7.25,72562.0,-13.21,-14.79,-14.93,0,*54
1513174004.96,2628,7.25,72542.5,-13.23,-14.93,-14.83,0,*5C
1513174006.22,2629,7.25,72546.3,-13.19,-14.79,-14.93,0,*51
1513174007.5,2630,7.25,72538.5,-13.21,-14.93,-14.97,0,*52
1513174008.78,2631,7.25,72524.3,-13.21,-14.93,-14.93,0,*57
1513174009.99,2632,7.25,72518.5,-13.19,-14.89,-14.89,0,*5F
1513174011.28,2633,7.25,72530.5,-13.21,-14.83,-14.93,0,*54
1513174012.56,2634,7.25,72538.3,-13.21,-14.93,-14.93,0,*52
1513174013.82,2635,7.25,72542.3,-13.23,-14.93,-14.93,0,*51
1513174015.05,2636,7.25,72540.8,-13.23,-14.93,-15.07,0,*5E
1513174016.31,2637,7.25,72544.8,-13.21,-14.93,-15.07,0,*5D
1513174017.57,2638,7.25,72556.5,-13.21,-14.83,-15.07,0,*53
1513174018.81,2639,7.25,72554.5,-13.23,-14.83,-15.07,0,*50
1513174020.07,2640,7.25,72540.5,-13.21,-14.93,-15.07,0,*5D
1513174021.32,2641,7.25,72548.3,-13.21,-14.93,-15.07,0,*5C
1513174022.62,2642,7.25,72552.0,-13.21,-14.83,-14.97,0,*56
1513174023.87,2643,7.25,72554.5,-13.23,-14.93,-14.93,0,*50
1513174025.13,2644,7.25,72564.8,-13.23,-14.93,-14.97,0,*53
1513174026.39,2645,7.25,72568.0,-13.23,-14.93,-14.97,0,*52
1513174027.67,2646,7.25,72564.3,-13.21,-14.93,-14.97,0,*53
1513174028.91,2647,7.25,72560.8,-13.23,-14.93,-15.07,0,*58
1513174030.17,2648,7.25,72572.8,-13.23,-14.93,-14.97,0,*5F
1513174031.45,2649,7.25,72562.5,-13.21,-14.93,-14.97,0,*5C
1513174032.71,2650,7.25,72552.3,-13.23,-14.93,-14.97,0,*56
1513174033.96,2651,7.25,72558.0,-13.21,-14.93,-15.07,0,*5D
1513174035.18,2652,7.25,72558.8,-13.23,-15.07,-15.25,0,*50
1513174036.45,2653,7.25,72554.3,-13.21,-14.83,-15.07,0,*5E
1513174037.71,2654,7.25,72564.3,-13.23,-14.83,-14.97,0,*53
1513174038.97,2655,7.25,72560.5,-13.23,-14.93,-14.97,0,*53
1513174040.23,2656,7.25,72570.0,-13.23,-14.93,-14.97,0,*50
1513174041.52,2657,7.25,72570.8,-13.21,-14.93,-14.97,0,*53
1513174042.77,2658,7.25,72564.0,-13.21,-14.97,-15.07,0,*50
1513174044.02,2659,7.25,72564.3,-13.21,-14.97,-15.07,0,*51
1513174045.28,2660,7.25,72566.0,-13.21,-14.97,-15.07,0,*5B
1513174046.51,2661,7.25,72570.0,-13.23,-15.07,-14.97,0,*58
1513174047.77,2662,7.25,72570.8,-13.23,-14.97,-14.97,0,*53
1513174049.0,2663,7.25,72570.8,-13.23,-14.97,-15.07,0,*5A
1513174050.21,2664,7.25,72562.3,-13.23,-15.07,-15.11,0,*52
1513174051.46,2665,7.25,72564.0,-13.21,-14.97,-15.11,0,*59
1513174052.69,2666,7.25,72560.5,-13.23,-14.97,-15.07,0,*5F
1513174053.92,2667,7.25,72566.3,-13.23,-14.97,-15.11,0,*59
1513174055.18,2668,7.25,72574.5,-13.23,-14.97,-14.97,0,*59
1513174056.41,2669,7.25,72574.0,-13.23,-14.97,-15.11,0,*57
1513174057.64,2670,7.25,72580.8,-13.23,-14.97,-15.07,0,*58
1513174058.9,2671,7.25,72580.8,-13.25,-14.89,-14.97,0,*58
1513174060.19,2672,7.25,72576.3,-13.25,-14.97,-14.97,0,*54
1513174061.45,2673,7.25,72572.5,-13.25,-14.89,-15.01,0,*54
1513174062.71,2674,7.25,72574.8,-13.23,-14.83,-14.97,0,*51
1513174063.99,2675,7.25,72576.3,-13.25,-14.97,-15.01,0,*5D
1513174065.27,2676,7.25,72570.8,-13.25,-14.97,-15.01,0,*5E
1513174066.55,2677,7.25,72564.5,-13.25,-14.97,-15.01,0,*5F
1513174067.81,2678,7.25,72566.8,-13.23,-14.83,-14.93,0,*59
1513174069.07,2679,7.25,72568.5,-13.23,-14.79,-14.93,0,*5D
1513174070.34,2680,7.25,72570.0,-13.23,-14.83,-14.83,0,*5F
1513174071.6,2681,7.25,72572.5,-13.23,-14.79,-14.79,0,*5E
1513174072.83,2682,7.25,72568.3,-13.23,-14.69,-14.83,0,*59
1513174074.1,2683,7.25,72574.0,-13.23,-14.79,-14.83,0,*59
1513174075.36,2684,7.25,72570.8,-13.23,-14.79,-14.79,0,*5B
1513174076.59,2685,7.25,72570.0,-13.23,-14.69,-14.93,0,*5F
1513174077.85,2686,7.25,72572.0,-13.23,-14.79,-14.79,0,*59
1513174079.11,2687,7.25,72570.8,-13.23,-14.79,-14.79,0,*58
1513174080.38,2688,7.25,72568.5,-13.23,-14.55,-14.83,0,*5C
1513174081.64,2689,7.25,72574.5,-13.23,-14.79,-14.79,0,*56
1513174082.87,2690,7.25,72578.3,-13.23,-14.69,-14.93,0,*5B
1513174084.13,2691,7.25,72580.0,-13.23,-14.79,-14.93,0,*5B
1513174085.36,2692,7.25,72576.0,-13.23,-14.69,-14.83,0,*58
1513174086.62,2693,7.25,72578.0,-13.23,-14.79,-14.93,0,*59
1513174087.88,2694,7.25,72578.5,-13.23,-14.79,-14.93,0,*5E
1513174089.16,2695,7.25,72578.3,-13.21,-14.79,-14.93,0,*5D
1513174090.39,2696,7.25,72572.8,-13.23,-14.93,-15.07,0,*54
1513174091.63,2697,7.25,72572.3,-13.23,-14.93,-15.07,0,*55
1513174092.84,2698,7.25,72576.5,-13.23,-15.07,-15.11,0,*51
1513174094.07,2699,7.25,72574.5,-13.23,-14.97,-15.11,0,*58
1513174095.32,2700,7.25,72568.0,-13.25,-15.11,-15.21,0,*53
1513174096.57,2701,7.25,72568.0,-13.25,-15.15,-15.29,0,*5E
1513174097.83,2702,7.25,72566.8,-13.25,-15.15,-15.21,0,*55
1513174099.09,2703,7.25,72568.8,-13.25,-15.15,-15.35,0,*51
1513174100.37,2704,7.25,72566.0,-13.25,-15.21,-15.43,0,*50
1513174101.64,2705,7.25,72568.3,-13.25,-15.21,-15.29,0,*5D
1513174102.9,2706,7.25,72566.3,-13.25,-15.29,-15.35,0,*5B
1513174104.18,2707,7.25,72564.3,-13.25,-15.21,-15.35,0,*52
1513174105.46,2708,7.25,72562.0,-13.25,-15.21,-15.43,0,*5C
1513174106.72,2709,7.25,72562.5,-13.25,-15.29,-15.35,0,*54
1513174107.97,2710,7.25,72564.8,-13.27,-15.29,-15.43,0,*5F